CW3363 Weather Reports


time (UTC)temp
C
wind
direction
speed
KPH
gust
KPH
rain 1hr
cm
rain 24hr
cm
rain mn
cm
humidity
%
barometer
mb
20260506181823 28 213 6.4 9.7 0.00 0.00 0.00 80 1010.5
20260506181328 28 289 1.6 6.4 0.00 0.00 0.00 80 1010.5
20260506180834 28 175 1.6 6.4 0.00 0.00 0.00 81 1010.5
20260506180324 28 149 3.2 11.3 0.00 0.00 0.00 82 1010.8
20260506175828 28 144 8.0 11.3 0.00 0.00 0.00 82 1010.8
20260506175338 28 157 1.6 8.0 0.00 0.00 0.00 82 1010.8
20260506174823 27 189 0.0 8.0 0.00 0.00 0.00 83 1011.2
20260506174329 27 140 4.8 8.0 0.00 0.00 0.00 84 1011.2
20260506173834 27 158 3.2 8.0 0.00 0.00 0.00 84 1011.2
20260506173339 27 141 3.2 11.3 0.00 0.00 0.00 84 1011.2
20260506172825 27 144 8.0 11.3 0.00 0.00 0.00 83 1011.2
20260506172330 27 133 6.4 9.7 0.00 0.00 0.00 83 1011.2
20260506171834 27 153 4.8 8.0 0.00 0.00 0.00 83 1011.4
20260506171339 27 180 0.0 4.8 0.00 0.00 0.00 84 1011.4
20260506170826 27 189 1.6 8.0 0.00 0.00 0.00 84 1011.4
20260506170352 27 189 3.2 8.0 0.00 0.00 0.00 84 1011.2
20260506165834 27 172 4.8 9.7 0.00 0.00 0.00 85 1011.2
20260506165322 27 131 4.8 14.5 0.00 0.00 0.00 85 1011.2
20260506164831 27 127 8.0 14.5 0.00 0.00 0.00 84 1011.2
20260506164337 27 181 4.8 14.5 0.00 0.00 0.00 85 1011.2
20260506163902 27 150 8.0 11.3 0.00 0.00 0.00 85 1011.2
20260506163327 27 173 4.8 11.3 0.00 0.00 0.00 85 1011.2
20260506162835 27 132 6.4 12.9 0.00 0.00 0.00 84 1011.2
20260506162343 27 195 4.8 12.9 0.00 0.00 0.00 85 1011.2
20260506161828 27 123 8.0 11.3 0.00 0.00 0.00 85 1010.7
20260506161334 27 132 6.4 9.7 0.00 0.00 0.00 85 1010.7
20260506160821 27 132 3.2 11.3 0.00 0.00 0.00 85 1010.7
20260506160329 27 144 6.4 11.3 0.00 0.00 0.00 85 1010.7
20260506155823 27 184 4.8 9.7 0.00 0.00 0.00 85 1010.7
20260506155327 27 198 4.8 9.7 0.00 0.00 0.00 86 1010.7
20260506154833 27 176 3.2 11.3 0.00 0.00 0.00 86 1010.7
20260506154338 26 170 4.8 11.3 0.00 0.00 0.00 85 1010.7
20260506153841 27 127 4.8 8.0 0.00 0.00 0.00 85 1010.7
20260506153326 27 134 1.6 9.7 0.00 0.00 0.00 85 1010.7
20260506152830 26 190 4.8 9.7 0.00 0.00 0.00 86 1010.7
20260506152335 26 140 3.2 9.7 0.00 0.00 0.00 86 1010.7
20260506151843 26 136 6.4 12.9 0.00 0.00 0.00 85 1010.3
20260506151327 26 142 8.0 12.9 0.00 0.00 0.00 86 1010.3
20260506150834 27 127 6.4 11.3 0.00 0.00 0.00 86 1010.3
20260506150339 26 137 4.8 11.3 0.00 0.00 0.00 86 1010.2
20260506145826 26 131 8.0 12.9 0.00 0.00 0.00 87 1010.2
20260506145331 26 120 4.8 12.9 0.00 0.00 0.00 87 1010.2
20260506144836 26 141 9.7 12.9 0.00 0.00 0.00 87 1010.0
20260506144341 26 149 8.0 11.3 0.00 0.00 0.00 88 1010.0
20260506143826 26 208 4.8 11.3 0.00 0.00 0.00 89 1010.0
20260506143331 26 154 6.4 16.1 0.00 0.00 0.00 89 1009.9
20260506142835 26 113 6.4 19.3 0.00 0.00 0.00 89 1009.9
20260506142324 26 129 8.0 19.3 0.00 0.00 0.00 90 1009.9
20260506141830 26 139 4.8 11.3 0.00 0.00 0.00 90 1010.0
20260506141335 25 119 3.2 16.1 0.00 0.00 0.00 91 1010.0
20260506140823 25 199 8.0 16.1 0.00 0.00 0.00 91 1010.0
20260506140328 25 139 9.7 14.5 0.00 0.00 0.00 91 1010.1
20260506135832 25 97 3.2 9.7 0.00 0.00 0.00 92 1010.1
20260506135338 25 148 3.2 9.7 0.00 0.00 0.00 92 1010.1
20260506134823 25 151 4.8 9.7 0.00 0.00 0.00 92 1010.1
20260506134328 25 129 4.8 9.7 0.00 0.00 0.00 93 1010.1
20260506133834 25 116 6.4 11.3 0.00 0.00 0.00 93 1010.1
20260506133400 25 155 6.4 11.3 0.00 0.00 0.00 93 1010.2
20260506132826 25 134 6.4 12.9 0.00 0.00 0.00 93 1010.2
20260506132332 25 134 6.4 12.9 0.00 0.00 0.00 93 1010.2
20260506131839 25 137 6.4 12.9 0.00 0.00 0.00 93 1010.2
20260506131326 25 150 4.8 14.5 0.00 0.00 0.00 93 1010.2
20260506130852 25 188 4.8 14.5 0.00 0.00 0.00 93 1010.2
20260506130337 25 134 3.2 9.7 0.00 0.00 0.00 93 1010.2
20260506125901 25 170 6.4 14.5 0.00 0.00 0.00 94 1010.2
20260506125325 25 158 4.8 14.5 0.00 0.00 0.00 94 1010.2
20260506124829 25 191 3.2 9.7 0.00 0.00 0.00 94 1010.1
20260506124357 24 160 4.8 9.7 0.00 0.00 0.00 94 1010.1
20260506123823 24 154 3.2 9.7 0.00 0.00 0.00 94 1010.1
20260506123329 24 177 4.8 6.4 0.00 0.00 0.00 94 1010.0
20260506122838 24 191 3.2 8.0 0.00 0.00 0.00 95 1010.0
20260506122325 24 167 3.2 8.0 0.00 0.00 0.00 95 1010.0
20260506121852 24 191 3.2 8.0 0.00 0.00 0.00 95 1009.9
20260506121337 24 143 3.2 8.0 0.00 0.00 0.00 95 1009.9
20260506120827 24 134 3.2 6.4 0.00 0.00 0.00 95 1009.9
20260506120336 24 121 3.2 6.4 0.00 0.00 0.00 95 1009.7
20260506115825 24 136 3.2 8.0 0.00 0.00 0.00 95 1009.7
20260506115330 24 189 3.2 8.0 0.00 0.00 0.00 95 1009.7
20260506114839 23 143 3.2 6.4 0.00 0.00 0.00 95 1009.5
20260506114325 23 194 3.2 4.8 0.00 0.00 0.00 95 1009.5
20260506113832 23 194 1.6 4.8 0.00 0.00 0.00 95 1009.5
20260506113337 23 156 1.6 3.2 0.00 0.00 0.00 95 1009.2
20260506112823 23 156 1.6 4.8 0.00 0.00 0.00 95 1009.2
20260506112329 23 156 3.2 6.4 0.00 0.00 0.00 95 1009.2
20260506111837 23 127 3.2 8.0 0.00 0.00 0.00 94 1008.9
20260506111325 23 196 4.8 8.0 0.00 0.00 0.00 94 1008.9
20260506110855 23 140 4.8 8.0 0.00 0.00 0.00 94 1008.9
20260506110339 23 166 4.8 11.3 0.00 0.00 0.00 94 1008.8
20260506105824 23 146 6.4 11.3 0.00 0.00 0.00 94 1008.8
20260506105350 23 198 3.2 6.4 0.00 0.00 0.00 94 1008.8
20260506104835 23 146 3.2 6.4 0.00 0.00 0.00 94 1008.8
20260506104321 23 187 3.2 6.4 0.00 0.00 0.00 93 1008.8
20260506103848 23 137 3.2 6.4 0.00 0.00 0.00 93 1008.8
20260506103333 23 162 4.8 9.7 0.00 0.00 0.00 93 1008.7
20260506102838 23 182 4.8 9.7 0.00 0.00 0.00 93 1008.7
20260506102324 24 163 3.2 8.0 0.00 0.00 0.00 93 1008.7
20260506101832 24 183 6.4 8.0 0.00 0.00 0.00 93 1008.9
20260506101322 24 168 3.2 8.0 0.00 0.00 0.00 93 1008.9
20260506100827 24 179 3.2 9.7 0.00 0.00 0.00 93 1008.9
20260506100336 24 185 4.8 9.7 0.00 0.00 0.00 93 1008.6
20260506095840 24 186 3.2 11.3 0.00 0.00 0.00 92 1008.6
20260506095344 24 156 6.4 11.3 0.00 0.00 0.00 92 1008.6
20260506094831 24 169 4.8 17.7 0.00 0.00 0.00 92 1008.4
20260506094355 24 198 8.0 17.7 0.00 0.00 0.00 92 1008.4
20260506093839 24 185 8.0 14.5 0.00 0.00 0.00 92 1008.4
20260506093345 24 163 1.6 9.7 0.00 0.00 0.00 92 1008.5
20260506092828 24 177 6.4 12.9 0.00 0.00 0.00 92 1008.5
20260506092337 24 190 8.0 16.1 0.00 0.00 0.00 92 1008.5
20260506091840 24 164 8.0 16.1 0.00 0.00 0.00 92 1008.5
20260506091325 25 153 4.8 12.9 0.00 0.00 0.00 91 1008.5
20260506090836 25 162 6.4 14.5 0.00 0.00 0.00 91 1008.5
20260506090341 25 198 9.7 14.5 0.00 0.00 0.00 91 1008.6
20260506085822 25 130 8.0 19.3 0.00 0.00 0.00 91 1008.6
20260506085331 25 179 6.4 19.3 0.00 0.00 0.00 91 1008.6
20260506084836 25 131 6.4 16.1 0.00 0.00 0.00 91 1008.6
20260506084323 25 209 8.0 19.3 0.00 0.00 0.00 91 1008.6
20260506083830 25 140 4.8 19.3 0.00 0.00 0.00 91 1008.6
20260506083338 25 170 6.4 14.5 0.00 0.00 0.00 91 1008.7
20260506082823 25 144 6.4 16.1 0.00 0.00 0.00 91 1008.7
20260506082330 25 154 6.4 16.1 0.00 0.00 0.00 91 1008.7
20260506081821 25 138 6.4 14.5 0.00 0.00 0.00 91 1009.0
20260506081326 25 199 3.2 14.5 0.00 0.00 0.00 91 1009.0
20260506080833 25 140 4.8 11.3 0.00 0.00 0.00 91 1009.0
20260506080337 25 194 6.4 11.3 0.00 0.00 0.00 91 1009.1
20260506073325 25 172 4.8 8.0 0.00 0.00 0.00 91 1009.5
20260506072833 25 142 3.2 8.0 0.00 0.00 0.00 91 1009.5
20260506072322 25 166 4.8 11.3 0.00 0.00 0.00 91 1009.5
20260506071828 25 176 8.0 16.1 0.00 0.00 0.00 91 1009.6
20260506071334 25 154 8.0 16.1 0.00 0.00 0.00 91 1009.6
20260506070841 25 167 8.0 14.5 0.00 0.00 0.00 91 1009.6
20260506070325 25 167 6.4 12.9 0.00 0.00 0.00 91 1009.6
20260506062333 25 153 8.0 16.1 0.00 0.00 0.00 90 1009.6
20260506061841 25 137 6.4 14.5 0.00 0.00 0.00 90 1009.7
20260506061326 25 197 6.4 16.1 0.00 0.00 0.00 90 1009.7
20260506060833 25 149 6.4 17.7 0.00 0.00 0.00 90 1009.7
20260506060319 25 115 6.4 14.5 0.00 0.00 0.00 90 1009.7
20260506051331 25 143 8.0 16.1 0.00 0.00 0.00 89 1009.7
20260506050835 25 136 6.4 19.3 0.00 0.00 0.00 89 1009.7
20260506050340 25 126 12.9 19.3 0.00 0.00 0.00 89 1009.6
20260506044835 25 207 9.7 19.3 0.00 0.00 0.00 89 1009.7
20260506044340 25 171 9.7 19.3 0.00 0.00 0.00 89 1009.7
20260506043824 25 182 8.0 19.3 0.00 0.00 0.00 88 1009.7
20260506043329 25 143 9.7 19.3 0.00 0.00 0.00 88 1009.7
20260506042854 25 156 8.0 20.9 0.00 0.00 0.00 88 1009.7
20260506042323 25 137 4.8 20.9 0.00 0.00 0.00 87 1009.7
20260506041829 25 177 9.7 20.9 0.00 0.00 0.00 87 1009.6
20260506041333 25 167 6.4 17.7 0.00 0.00 0.00 87 1009.6
20260506040838 25 164 6.4 17.7 0.00 0.00 0.00 87 1009.6
20260506040324 25 153 12.9 17.7 0.00 0.00 0.00 87 1009.2
20260506035828 25 191 4.8 17.7 0.00 0.00 0.00 87 1009.2
20260506035336 25 163 6.4 17.7 0.00 0.00 0.00 87 1009.2
20260506034902 25 141 9.7 16.1 0.00 0.00 0.00 86 1009.3
20260506034325 25 179 6.4 16.1 0.00 0.00 0.00 86 1009.3
20260506033829 25 184 8.0 16.1 0.00 0.00 0.00 86 1009.3
20260506033334 25 199 9.7 16.1 0.00 0.00 0.00 86 1009.1
20260506032822 26 137 6.4 12.9 0.00 0.00 0.00 86 1009.1
20260506032327 26 180 6.4 20.9 0.00 0.00 0.00 86 1009.1
20260506031831 26 137 8.0 20.9 0.00 0.00 0.00 86 1008.8
20260506031335 26 184 8.0 19.3 0.00 0.00 0.00 86 1008.8
20260506030840 26 133 6.4 19.3 0.00 0.00 0.00 86 1008.8
20260506030323 26 140 11.3 19.3 0.00 0.00 0.00 86 1008.7
20260506025827 26 169 8.0 19.3 0.00 0.00 0.00 86 1008.7
20260506025331 26 198 4.8 19.3 0.00 0.00 0.00 86 1008.7
20260506024836 26 147 11.3 16.1 0.00 0.00 0.00 86 1008.5
20260506024343 26 195 6.4 24.1 0.00 0.00 0.00 85 1008.5
20260506023827 26 188 14.5 24.1 0.00 0.00 0.00 85 1008.5
20260506023352 26 200 8.0 17.7 0.00 0.00 0.00 85 1008.2
20260506022835 26 179 9.7 17.7 0.00 0.00 0.00 85 1008.2
20260506022341 26 141 9.7 20.9 0.00 0.00 0.00 85 1008.2
20260506021828 26 132 9.7 20.9 0.00 0.00 0.00 85 1008.2
20260506021332 26 138 11.3 20.9 0.00 0.00 0.00 84 1008.2
20260506020840 26 194 8.0 22.5 0.00 0.00 0.00 84 1008.2
20260506020324 26 196 9.7 22.5 0.00 0.00 0.00 84 1008.1
20260506015832 26 192 11.3 17.7 0.00 0.00 0.00 83 1008.1
20260506015336 26 193 6.4 11.3 0.00 0.00 0.00 83 1008.1
20260506014842 26 138 8.0 16.1 0.00 0.00 0.00 83 1007.9
20260506014327 26 125 6.4 17.7 0.00 0.00 0.00 83 1007.9
20260506013853 26 161 6.4 17.7 0.00 0.00 0.00 83 1007.9
20260506013337 26 146 11.3 17.7 0.00 0.00 0.00 83 1007.5
20260506012821 26 151 14.5 17.7 0.00 0.00 0.00 83 1007.5
20260506012328 26 151 9.7 22.5 0.00 0.00 0.00 83 1007.5
20260506011837 26 140 11.3 22.5 0.00 0.00 0.00 82 1007.4
20260506011341 26 177 8.0 16.1 0.00 0.00 0.00 82 1007.4
20260506010825 26 183 6.4 17.7 0.00 0.00 0.00 82 1007.4
20260506010331 26 177 11.3 20.9 0.00 0.00 0.00 82 1007.2
20260506005854 26 134 8.0 20.9 0.00 0.00 0.00 81 1007.2
20260506005339 26 175 4.8 17.7 0.00 0.00 0.00 81 1007.2
20260506004822 26 168 8.0 17.7 0.00 0.00 0.00 81 1007.1
20260506004327 27 154 8.0 17.7 0.00 0.00 0.00 81 1007.1
20260506003831 27 189 8.0 17.7 0.00 0.00 0.00 80 1007.1
20260506003333 27 146 8.0 19.3 0.00 0.00 0.00 80 1007.1
20260506002837 27 149 9.7 19.3 0.00 0.00 0.00 80 1007.1
20260506002321 27 142 4.8 16.1 0.00 0.00 0.00 80 1007.1
20260506001829 27 183 8.0 22.5 0.00 0.00 0.00 80 1007.0
20260506001337 27 182 12.9 22.5 0.00 0.00 0.00 79 1007.0
20260506000829 27 200 11.3 19.3 0.00 0.00 0.00 79 1007.0
20260506000337 27 186 9.7 19.3 0.00 0.00 0.00 78 1007.0
20260505235900 27 195 8.0 25.7 0.00 0.00 0.00 78 1007.0
20260505235343 27 179 9.7 25.7 0.00 0.00 0.00 78 1007.0
20260505234829 27 168 9.7 19.3 0.00 0.00 0.00 78 1007.0
20260505234334 27 159 11.3 30.6 0.00 0.00 0.00 78 1007.0
20260505233839 27 164 12.9 30.6 0.00 0.00 0.00 77 1007.0
20260505233323 27 138 11.3 19.3 0.00 0.00 0.00 78 1007.0
20260505232827 27 179 6.4 19.3 0.00 0.00 0.00 78 1007.0
20260505232331 27 198 9.7 17.7 0.00 0.00 0.00 78 1007.0
20260505231836 27 210 6.4 19.3 0.00 0.00 0.00 78 1007.0
20260505231325 27 175 9.7 20.9 0.00 0.00 0.00 77 1007.0
20260505230833 27 195 11.3 20.9 0.00 0.00 0.00 77 1007.0
20260505230337 28 200 11.3 25.7 0.00 0.00 0.00 77 1007.1
20260505225840 28 189 12.9 25.7 0.00 0.00 0.00 77 1007.1
20260505225324 28 138 4.8 17.7 0.00 0.00 0.00 77 1007.1
20260505224828 28 180 9.7 19.3 0.00 0.00 0.00 77 1007.0
20260505224333 28 255 8.0 24.1 0.00 0.00 0.00 77 1007.0
20260505223838 28 149 9.7 27.4 0.00 0.00 0.00 77 1007.0
20260505223325 28 160 9.7 27.4 0.00 0.00 0.00 77 1007.1
20260505222832 28 144 8.0 27.4 0.00 0.00 0.00 77 1007.1
20260505222335 28 231 8.0 27.4 0.00 0.00 0.00 76 1007.1
20260505221840 28 132 9.7 19.3 0.00 0.00 0.00 76 1007.1
20260505221323 28 158 11.3 19.3 0.00 0.00 0.00 76 1007.1
20260505220835 28 175 9.7 22.5 0.00 0.00 0.00 76 1007.1
20260505220359 28 175 11.3 22.5 0.00 0.00 0.00 76 1007.5
20260505215841 28 190 11.3 22.5 0.00 0.00 0.00 76 1007.5
20260505215325 28 189 9.7 22.5 0.00 0.00 0.00 77 1007.5
20260505214831 28 229 11.3 22.5 0.00 0.00 0.00 76 1007.6
20260505214336 28 186 12.9 22.5 0.00 0.00 0.00 76 1007.6
20260505213841 28 186 6.4 22.5 0.00 0.00 0.00 77 1007.6
20260505213325 28 172 6.4 19.3 0.00 0.00 0.00 77 1007.6
20260505212829 28 217 9.7 20.9 0.00 0.00 0.00 76 1007.6
20260505212334 28 198 6.4 22.5 0.00 0.00 0.00 76 1007.6
20260505211840 28 201 11.3 25.7 0.00 0.00 0.00 76 1007.9
20260505211346 28 198 12.9 25.7 0.00 0.00 0.00 76 1007.9
20260505210834 28 170 9.7 22.5 0.00 0.00 0.00 76 1007.9
20260505210323 28 144 12.9 19.3 0.00 0.00 0.00 76 1008.0
20260505205831 28 203 6.4 19.3 0.00 0.00 0.00 76 1008.0
20260505205334 28 220 6.4 20.9 0.00 0.00 0.00 77 1008.0
20260505204821 28 170 12.9 20.9 0.00 0.00 0.00 76 1008.1
20260505204329 28 120 8.0 19.3 0.00 0.00 0.00 76 1008.1
20260505203836 28 205 14.5 19.3 0.00 0.00 0.00 75 1008.1
20260505203343 29 190 9.7 19.3 0.00 0.00 0.00 74 1008.5
20260505202830 29 168 6.4 19.3 0.00 0.00 0.00 75 1008.5
20260505202338 29 175 11.3 19.3 0.00 0.00 0.00 74 1008.5
20260505201826 28 214 6.4 16.1 0.00 0.00 0.00 76 1008.7
20260505201334 28 195 9.7 19.3 0.00 0.00 0.00 75 1008.7
20260505200825 28 194 11.3 19.3 0.00 0.00 0.00 75 1008.7
20260505200330 28 198 6.4 20.9 0.00 0.00 0.00 75 1008.9
20260505195853 28 192 4.8 20.9 0.00 0.00 0.00 76 1008.9
20260505195336 28 215 11.3 20.9 0.00 0.00 0.00 75 1008.9
20260505194822 28 159 8.0 20.9 0.00 0.00 0.00 75 1009.1
20260505194327 28 170 12.9 19.3 0.00 0.00 0.00 76 1009.1
20260505193852 28 189 9.7 19.3 0.00 0.00 0.00 77 1009.1
20260505193336 28 175 9.7 19.3 0.00 0.00 0.00 77 1009.1
20260505192900 28 207 8.0 19.3 0.00 0.00 0.00 77 1009.1
20260505192403 28 154 8.0 19.3 0.00 0.00 0.00 77 1009.1
20260505191827 28 161 6.4 19.3 0.00 0.00 0.00 78 1009.1
20260505191334 28 127 8.0 17.7 0.00 0.00 0.00 77 1009.1
20260505190837 28 201 9.7 25.7 0.00 0.00 0.00 76 1009.1
20260505190322 28 175 8.0 25.7 0.00 0.00 0.00 74 1009.2
20260505185824 28 180 9.7 17.7 0.00 0.00 0.00 74 1009.2
20260505185330 28 260 9.7 25.7 0.00 0.00 0.00 76 1009.2
20260505184854 28 200 14.5 25.7 0.00 0.00 0.00 76 1009.4
20260505184340 28 215 9.7 22.5 0.00 0.00 0.00 76 1009.4
20260505183824 27 218 9.7 24.1 0.00 0.00 0.00 77 1009.4
20260505183330 27 171 6.4 24.1 0.00 0.00 0.00 78 1009.5
20260505182836 27 127 9.7 22.5 0.00 0.00 0.00 78 1009.5
20260505182340 27 200 8.0 22.5 0.00 0.00 0.00 79 1009.5